Regional Weather Roundup
Issued by NWS

Home | Current Version | Previous Version | Graphics & Text | Print | Product List | Glossary Off
Versions: 1 2 3 4 5 6 7 8 9 10 11 12 13 14 15 16 17 18 19 20 21 22 23 24 25 26 27 28 29 30 31 32 33 34 35 36 37 38 39 40 41 42 43 44 45 46 47 48 49 50

000
ASUS43 KMPX 062301
RWRMN
WEATHER ROUNDUP FOR MINNESOTA
NATIONAL WEATHER SERVICE TWIN CITIES/CHANHASSEN MN
500 PM CST FRI MAR 06 2015


NOTE: "FAIR" INDICATES FEW OR NO CLOUDS BELOW 12,000 FEET WITH NO
SIGNIFICANT WEATHER AND/OR OBSTRUCTIONS TO VISIBILITY. N/A MEANS
CURRENT SKY AND/OR WEATHER CONDITIONS ARE NOT AVAILABLE.

MNZ060>063-068>070-070000-
   Twin Cities Metro

CITY           SKY/WX    TMP DP  RH WIND       PRES   REMARKS
TWIN CITIES    PTSUNNY   36  16  44 NW9       30.05R
ST PAUL        PTSUNNY   36  16  44 NW13      30.06R
BLAINE         PTSUNNY   36  19  51 W14       30.04S
LAKEVILLE      PTSUNNY   34  19  55 W10       30.05R WCI  26
EDEN PRAIRIE   PTSUNNY   35  17  47 W14       30.05R WCI  26
SOUTH ST PAUL  PTSUNNY   37  16  43 NW10      30.05R
LAKE ELMO      FAIR      34  19  55 W9        30.05R WCI  26
$$
MNZ001>005-007-008-013>017-022>024-027-028-070000-
   Northwest Minnesota

CITY           SKY/WX    TMP DP  RH WIND       PRES   REMARKS
BEMIDJI        SUNNY     30  14  51 W10       29.97F WCI  21
HALLOCK        PTSUNNY   34  27  75 S10       29.93F WCI  26
ROSEAU         MOSUNNY   30  21  69 SW9       29.92F WCI  22
WARROAD        SUNNY     30  19  64 SW8       29.91F WCI  23
THIEF RVR FALL MOSUNNY   32  21  64 S12       29.96F WCI  23
CROOKSTON      PTSUNNY   36  21  55 SW13      29.98F
FOSSTON        SUNNY     28  19  69 S7        29.98F WCI  21
DETROIT LAKES  SUNNY     32  19  59 CALM      30.02F
MOORHEAD       MOSUNNY   39  16  38 W8        30.03F
PARK RAPIDS    SUNNY     30  13  49 W7        29.99F WCI  23
MAHNOMEN       FAIR      32  19  58 SW3       30.00F
$$
MNZ006-009>011-018-025>026-070000-
   North Central Minnesota

CITY           SKY/WX    TMP DP  RH WIND       PRES   REMARKS
BAUDETTE       SUNNY     32  12  43 W6        29.90F WCI  26
FLAG ISLAND    MOSUNNY   32  12  43 SW16      29.87F WCI  21
INTL FALLS     CLEAR     31   9  39 W9        29.92F WCI  23
WASKISH        SUNNY     28  16  59 SW12      29.95F WCI  18
BIG FORK       CLEAR     32  10  40 W6        29.95F WCI  26
LONGVILLE      SUNNY     32   9  37 NW5       29.99S WCI  27
GRAND RAPIDS   SUNNY     30  10  43 W9G20     29.97S WCI  22
CRANE LAKE     CLEAR     30   5  34 W6        29.94S WCI  24
ORR            CLEAR     32   7  34 W6        29.90F WCI  26
COOK           CLEAR     30   9  40 W12       29.93S WCI  21
WALKER         FAIR      32  10  40 W8        29.99S WCI  25
$$
MNZ012-019>021-037-070000-
   Northeast Minnesota

CITY           SKY/WX    TMP DP  RH WIND       PRES   REMARKS
DULUTH         CLEAR     32   9  38 W13       29.95R WCI  22
ELY            CLEAR     30   5  34 W9G16     29.91R WCI  22
HIBBING        CLEAR     32   9  38 W12       29.95R WCI  23
EVELETH        CLEAR     32  12  43 W12G17    29.95S WCI  23
DULUTH HARBOR  CLEAR     34  16  47 W10       29.99S WCI  26
TWO HARBORS    CLEAR     36  14  41 W12G18    29.92S
SILVER BAY     CLEAR     36   7  30 W7        29.91R
GRAND MARAIS     N/A     32   9  38 W8        29.91R WCI  25
G MARAIS ARPRT CLEAR     25   5  42 W8G18     29.86R WCI  16
$$
MNZ029>031-032-039>041-046>048-054>057-064-070000-
   West Central Minnesota

CITY           SKY/WX    TMP DP  RH WIND       PRES   REMARKS
FERGUS FALLS   SUNNY     36  18  48 W7        30.06F
WHEATON        SUNNY     36  19  51 W6        30.08F
MORRIS         SUNNY     34  21  60 W8        30.06F WCI  27
ALEXANDRIA     SUNNY     31  18  58 W9        30.04F WCI  23
ELBOW LAKE     FAIR      32  24  70 W10       30.05S WCI  24
WADENA         SUNNY     30  16  55 W7        30.01F WCI  23
GLENWOOD       MOSUNNY   30  19  64 W9        30.06F WCI  22
APPLETON       SUNNY     36  21  55 W8        30.09F
BENSON         SUNNY     34  19  55 NW7       30.08F WCI  28
ORTONVILLE     SUNNY     36  19  51 W7        30.08F
MADISON        SUNNY     36  21  55 W6        30.09S
WILLMAR        FAIR      34  19  55 NW10      30.09S WCI  26
$$
MNZ033>034-036-042>043-049>051-058-059-070000-
   Central Minnesota

CITY           SKY/WX    TMP DP  RH WIND       PRES   REMARKS
ST CLOUD       MOSUNNY   33  16  49 W10       30.05R WCI  25
SAUK CENTRE    FAIR      31  17  57 W10       30.05F WCI  22
PAYNESVILLE    PTSUNNY   29  18  63 SW13      30.07S WCI  19
AITKIN         SUNNY     37   9  30 W3        29.98S
PINE RIVER     MOSUNNY   34  12  40 W7        30.03S WCI  28
BRAINERD       MOSUNNY   33  11  39 W9        30.01S WCI  25
STAPLES        MOSUNNY   30  16  55 W9        30.02S WCI  22
LONG PRAIRIE   FAIR      32  16  51 SW9       30.04F WCI  24
LITTLE FALLS   MOSUNNY   32  14  47 W10       30.04S WCI  24
LITCHFIELD     PTSUNNY   34  18  51 W9        30.07F WCI  26
BUFFALO        PTSUNNY   33  18  54 W9        30.06S WCI  25
MAPLE LAKE     PTSUNNY   33  20  59 W8        30.07R WCI  26
$$
MNZ037-044-045-052-053-070000-
   East Central Minnesota

CITY           SKY/WX    TMP DP  RH WIND       PRES   REMARKS
PRINCETON      PTSUNNY   34  18  51 W8        30.05S WCI  27
MORA           MOSUNNY   34  14  44 NW5       30.04S WCI  30
CAMBRIDGE      PTSUNNY   36  19  51 W9        30.02S
RUSH CITY      MOSUNNY   35  15  44 CALM      30.03S
MOOSE LAKE     CLEAR     34  12  40 NW7       29.98R WCI  28
HINCKLEY       FAIR      32  16  51 W12       30.01S WCI  23
CLOQUET        CLEAR     34   7  32 NW12      29.96S WCI  25
MCGREGOR       SUNNY     34  10  37 NW14G20   29.99S WCI  24
$$
MNZ071>073-080-081-089-090-097-098-070000-
   Southwest Minnesota

CITY           SKY/WX    TMP DP  RH WIND       PRES   REMARKS
MONTEVIDEO     SUNNY     36  21  55 N7        30.10F
GRANITE FALLS  SUNNY     35  23  59 W10       30.10F WCI  28
CANBY          SUNNY     37  22  55 NW5       30.09F
MARSHALL       SUNNY     37  19  48 NW10      30.11S
REDWOOD FALLS  MOSUNNY   36  19  50 NW9       30.09S
OLIVIA         MOSUNNY   32  21  64 NW12      30.08S WCI  23
PIPESTONE      SUNNY     39  23  52 NW8       30.08S
WINDOM         PTSUNNY   37  25  60 NW9       30.08S
WORTHINGTON    MOSUNNY   37  25  60 W13       30.10S
JACKSON        CLOUDY    41  27  56 NW9       30.08S
TRACY          SUNNY     38  23  54 NW9       30.09S
SLAYTON        MOSUNNY   38  22  52 W12       30.09S
$$
MNZ065>067-074>077-082>085-091>093-070000-
   South Central Minnesota

CITY           SKY/WX    TMP DP  RH WIND       PRES   REMARKS
MANKATO        CLOUDY    36  21  55 NW13      30.08S
NEW ULM        PTSUNNY   36  19  51 NW14      30.08S
ST JAMES       PTSUNNY   39  25  56 W12       30.10S
FAIRMONT       PTSUNNY   39  25  56 NW12      30.08S
GLENCOE        CLOUDY    35  24  63 W10       30.07R WCI  27
FARIBAULT      PTSUNNY   36  21  55 W12G20    30.06S
OWATONNA       PTSUNNY   36  23  60 W13G21    30.06R
WASECA         CLOUDY    37  25  60 NW15      30.08R
ALBERT LEA     CLOUDY    37  25  60 W8        30.06S
$$
MNZ078>079-086>088-094>096-070000-
   Southeast Minnesota

CITY           SKY/WX    TMP DP  RH WIND       PRES   REMARKS
ROCHESTER      MOSUNNY   35  24  64 W13       30.04S WCI  26
RED WING       MOSUNNY   37  19  48 W7        30.04R
STANTON        PTSUNNY   36  24  62 W8        30.04R
DODGE CENTER   PTSUNNY   36  27  69 W12       30.04R
WINONA         CLEAR     37  23  56 SW5       30.06S
AUSTIN         PTSUNNY   37  25  60 W9G16     30.05S
PRESTON        SUNNY     33  25  72 SW10      30.04S WCI  24
$$
ABBREVIATIONS USED IN REMARKS
   TC - TEMPERATURES IN CELSIUS
  WCI - WIND CHILL INDEX
   HX - HEAT INDEX
  VSB - VISIBILITY
$$



USA.gov is the U.S. government's official web portal to all federal, state and local government web resources and services.